Keahole Point, HI

2:19 PM HST on April 23, 2018 (GMT -1000)
Kona International At Keahole

Weather History for PHKO - November, 2013

Change the Weather History Date:

Sunday, November 3, 2013

  Actual Average Record
Temperature  
Mean Temperature 78 °F -  
Max Temperature 82 °F 82 °F 90 °F (1984)
Min Temperature 73 °F 72 °F 68 °F (1985)
Cooling Degree Days 12    
Growing Degree Days 28 (Base 50)    
Moisture  
Dew Point 67 °F    
Average Humidity 67    
Maximum Humidity 83    
Minimum Humidity 58    
Precipitation  
Precipitation 0.03 in - - ()
Sea Level Pressure  
Sea Level Pressure 29.98 in    
Wind  
Wind Speed 6 mph (SE)    
Max Wind Speed 12 mph    
Max Gust Speed -    
Visibility 10 miles    
Events Rain    
Averages and records for this station are not official NWS values.
T = Trace of Precipitation, MM = Missing Value Source: NWS Daily Summary

Daily Weather History Graph

Daily Weather History Graph

Search for Another Location

Airport or City:

Astronomy

Nov. 03, 2013 Rise Set
Actual Time 6:26 AM HST 5:48 PM HST
Civil Twilight 6:03 AM HST 6:11 PM HST
Nautical Twilight 5:37 AM HST 6:37 PM HST
Astronomical Twilight 5:11 AM HST 7:03 PM HST
Moon 6:39 AM HST (11/3) 6:17 PM HST (11/3)
Length of Visible Light 12h 07m
Length of Day
11h 22m
New Moon, 0% of the Moon is Illuminated
Nov 3
New Moon
Nov 9
First Quarter
Nov 17
Full
Nov 25
Last Quarter
Dec 2
New

Hourly Weather History & Observations

Time (HST) Temp. Heat Index Dew Point Humidity Pressure Visibility Wind Dir Wind Speed Gust Speed Precip Events Conditions
12:53 AM 75.9 °F - 64.0 °F 67% 29.98 in 10.0 mi ENE 6.9 mph - N/A   Mostly Cloudy
1:53 AM 78.1 °F - 64.0 °F 62% 29.97 in 10.0 mi ENE 8.1 mph - N/A   Overcast
2:53 AM 75.9 °F - 64.0 °F 67% 29.96 in 10.0 mi East 4.6 mph - N/A   Mostly Cloudy
3:53 AM 73.9 °F - 64.9 °F 73% 29.96 in 10.0 mi NNE 4.6 mph - N/A   Clear
4:53 AM 75.0 °F - 62.1 °F 64% 29.96 in 10.0 mi Calm Calm - N/A   Clear
5:53 AM 73.9 °F - 64.0 °F 71% 29.98 in 10.0 mi SE 5.8 mph - N/A   Clear
6:53 AM 75.0 °F - 64.9 °F 71% 30.00 in 10.0 mi East 5.8 mph - N/A   Clear
7:53 AM 78.1 °F - 64.9 °F 64% 30.01 in 10.0 mi ESE 5.8 mph - N/A   Clear
8:53 AM 81.0 °F 83.3 °F 66.9 °F 62% 30.02 in 10.0 mi NNW 4.6 mph - N/A   Scattered Clouds
9:53 AM 81.0 °F 83.3 °F 66.9 °F 62% 30.03 in 10.0 mi SSW 5.8 mph - N/A   Clear
10:53 AM 82.9 °F 85.4 °F 66.9 °F 58% 30.01 in 10.0 mi SSW 5.8 mph - N/A   Clear
11:53 AM 82.9 °F 85.8 °F 68.0 °F 60% 29.99 in 10.0 mi SW 8.1 mph - N/A   Partly Cloudy
12:53 PM 82.9 °F 85.8 °F 68.0 °F 60% 29.95 in 10.0 mi South 6.9 mph - N/A   Clear
1:53 PM 82.9 °F 85.4 °F 66.9 °F 58% 29.93 in 10.0 mi SW 9.2 mph - N/A   Clear
2:53 PM 82.0 °F 84.1 °F 66.0 °F 58% 29.92 in 10.0 mi SSW 8.1 mph - N/A   Partly Cloudy
3:53 PM 82.0 °F 84.1 °F 66.0 °F 58% 29.93 in 10.0 mi SSW 6.9 mph - N/A   Clear
4:53 PM 81.0 °F 83.3 °F 66.9 °F 62% 29.92 in 10.0 mi SW 4.6 mph - N/A   Clear
5:53 PM 80.1 °F 82.7 °F 68.0 °F 67% 29.95 in 10.0 mi SSE 6.9 mph - N/A   Clear
6:53 PM 79.0 °F - 68.0 °F 69% 29.97 in 10.0 mi East 5.8 mph - N/A   Mostly Cloudy
7:53 PM 79.0 °F - 68.0 °F 69% 29.99 in 10.0 mi SSE 6.9 mph - N/A   Clear
8:53 PM 78.1 °F - 68.0 °F 71% 30.00 in 10.0 mi ESE 11.5 mph - N/A   Mostly Cloudy
9:16 PM 75.2 °F - 69.8 °F 83% 30.00 in 10.0 mi ESE 10.4 mph - 0.00 in Rain Rain
9:53 PM 77.0 °F - 69.1 °F 76% 30.00 in 10.0 mi ENE 6.9 mph - 0.03 in   Overcast
10:53 PM 77.0 °F - 70.0 °F 79% 30.01 in 10.0 mi Calm Calm - N/A   Overcast
11:53 PM 75.9 °F - 69.1 °F 79% 29.98 in 10.0 mi SE 8.1 mph - N/A   Partly Cloudy